DW2770 Cefalu IT current weather conditions

sailwx.info

Wind from 180 at 3 knots gusting 10

Air temperature 23.3° C
Dewpoint 17.1° C

Last reported at 2014-Jul-31 02:39 UTC.
Time now 2014-Jul-31 03:27 UTC

Location: N 38°02' E 014°02'.
View on Google Maps.

See reports from other nearby stations

  
Tides and Currents Weather Stations Pressure Air Temp Water Temp Dewpoint Dewpoint Depression Visibility Wind Speed Wind Dir Waves Ship Positions
date/time (UTC)wind fromknots sea level pressurealtimeterstation pressurevisibilityair tempwater tempwave heightnotes
2014-Jul-31 02:39 180 3 gusting 10 23.3
2014-Jul-31 02:29 248 5 gusting 7 23.3
2014-Jul-31 02:19 225 6 gusting 11 23.3
2014-Jul-31 02:09 225 7 gusting 10 23.3
2014-Jul-31 01:59 225 6 gusting 10 23.3
2014-Jul-31 01:49 225 4 gusting 7 23.3
2014-Jul-31 01:39 225 6 gusting 8 23.3
2014-Jul-31 01:29 225 6 gusting 8 23.3
2014-Jul-31 01:19 206 8 gusting 8 23.3
2014-Jul-31 01:09 202 8 gusting 10 23.3
2014-Jul-31 00:59 233 6 gusting 10 23.3
2014-Jul-31 00:49 248 6 gusting 10 23.3
2014-Jul-31 00:39 225 6 gusting 10 23.3
2014-Jul-31 00:29 209 7 gusting 10 23.3
2014-Jul-31 00:19 225 8 gusting 10 23.3
2014-Jul-31 00:09 202 5 gusting 10 23.3
2014-Jul-30 23:59 218 6 gusting 11 23.3
2014-Jul-30 23:49 202 8 gusting 11 23.3
2014-Jul-30 23:39 225 10 gusting 10 23.3
2014-Jul-30 23:29 224 8 gusting 10 23.3
2014-Jul-30 23:19 202 11 gusting 12 23.3
2014-Jul-30 23:09 202 6 gusting 8 23.3
2014-Jul-30 22:59 202 7 gusting 12 23.3
2014-Jul-30 22:49 224 7 gusting 10 23.3
2014-Jul-30 22:39 202 8 gusting 10 23.3
2014-Jul-30 22:29 225 6 gusting 10 23.3
2014-Jul-30 22:19 225 8 gusting 11 23.3
2014-Jul-30 22:09 248 10 gusting 11 23.3
2014-Jul-30 21:59 228 4 gusting 10 23.3
2014-Jul-30 21:49 244 5 gusting 8 23.3
2014-Jul-30 21:39 225 5 gusting 6 23.3
2014-Jul-30 21:29 202 6 gusting 10 23.3
2014-Jul-30 21:19 262 5 gusting 6 23.3
2014-Jul-30 21:09 248 6 gusting 8 23.3
2014-Jul-30 20:59 248 4 gusting 10 23.3
2014-Jul-30 20:49 248 9 gusting 10 23.3
2014-Jul-30 20:39 315 3 gusting 7 23.3
2014-Jul-30 20:29 225 3 gusting 7 23.3
2014-Jul-30 20:19 252 6 gusting 6 23.3
2014-Jul-30 20:09 315 4 gusting 10 23.3
2014-Jul-30 19:59 225 6 gusting 10 23.3
2014-Jul-30 19:49 234 6 gusting 8 23.3
2014-Jul-30 19:39 225 6 gusting 11 23.3
2014-Jul-30 19:29 248 10 gusting 11 23.3
2014-Jul-30 19:19 220 5 gusting 10 23.3
2014-Jul-30 19:09 202 12 gusting 13 23.3
2014-Jul-30 18:59 226 5 gusting 8 23.3
2014-Jul-30 18:49 248 7 gusting 7 23.3
2014-Jul-30 18:39 202 3 gusting 4 23.9
2014-Jul-30 18:29 202 4 gusting 7 23.9
2014-Jul-30 18:19 254 7 gusting 7 23.9
2014-Jul-30 18:09 270 7 gusting 7 23.9
2014-Jul-30 17:59 270 1 gusting 11 23.9
2014-Jul-30 17:49 251 6 gusting 10 23.9
2014-Jul-30 17:39 248 5 gusting 6 24.4
2014-Jul-30 17:29 248 4 gusting 7 24.4
2014-Jul-30 17:19 284 5 gusting 10 24.4
2014-Jul-30 17:09 248 7 gusting 8 24.4
2014-Jul-30 16:59 292 6 gusting 7 24.4
2014-Jul-30 16:49 326 6 gusting 6 24.4
2014-Jul-30 16:39 292 4 gusting 8 24.4
2014-Jul-30 16:29 292 4 gusting 8 24.4
2014-Jul-30 16:19 227 6 gusting 6 24.4
2014-Jul-30 16:09 292 7 gusting 11 24.4
2014-Jul-30 15:59 315 6 gusting 11 24.4
2014-Jul-30 15:49 319 3 gusting 12 25.0
2014-Jul-30 15:39 202 6 gusting 11 25.6
2014-Jul-30 15:29 202 4 gusting 11 25.0
2014-Jul-30 15:19 225 4 gusting 7 25.0
2014-Jul-30 15:09 270 6 gusting 7 25.0
2014-Jul-30 14:59 270 7 gusting 12 25.6
2014-Jul-30 14:49 301 11 gusting 12 25.6
2014-Jul-30 14:39 315 6 gusting 12 25.0
2014-Jul-30 14:29 315 6 gusting 8 25.6
2014-Jul-30 14:19 229 8 gusting 10 25.6
2014-Jul-30 14:09 248 11 gusting 11 25.0
2014-Jul-30 13:59 270 3 gusting 12 25.0
2014-Jul-30 13:49 317 4 gusting 11 25.0
2014-Jul-30 13:39 315 8 gusting 10 25.0
2014-Jul-30 13:29 270 6 gusting 11 25.0
2014-Jul-30 13:19 270 10 gusting 11 25.0
2014-Jul-30 13:09 225 6 gusting 13 25.0
2014-Jul-30 12:59 248 7 gusting 12 25.0
2014-Jul-30 12:49 043 9 gusting 12 25.0
2014-Jul-30 12:39 248 5 gusting 14 24.4
2014-Jul-30 12:29 315 3 gusting 11 24.4
2014-Jul-30 12:19 204 7 gusting 11 24.4
2014-Jul-30 12:09 315 11 gusting 13 24.4
2014-Jul-30 11:59 248 9 gusting 11 24.4
2014-Jul-30 11:49 257 5 gusting 10 24.4
2014-Jul-30 11:40 342 10 gusting 15 24.4
2014-Jul-30 11:30 202 7 gusting 8 24.4
2014-Jul-30 11:19 023 6 gusting 8 24.4
2014-Jul-30 11:09 313 8 gusting 11 25.0
2014-Jul-30 10:59 225 6 gusting 12 25.0
2014-Jul-30 10:49 292 7 gusting 8 25.0
2014-Jul-30 10:39 248 5 gusting 8 25.0
2014-Jul-30 10:29 315 6 gusting 10 25.0
2014-Jul-30 10:19 312 10 gusting 11 25.0
2014-Jul-30 10:09 270 6 gusting 11 24.4
2014-Jul-30 09:59 315 6 gusting 13 24.4
2014-Jul-30 09:49 287 4 gusting 6 25.0
2014-Jul-30 09:39 247 5 gusting 13 24.4
2014-Jul-30 09:29 338 8 gusting 12 24.4
2014-Jul-30 09:19 270 10 gusting 12 24.4
2014-Jul-30 09:09 270 8 gusting 12 24.4
2014-Jul-30 08:59 270 6 gusting 12 24.4
2014-Jul-30 08:49 216 5 gusting 11 24.4
2014-Jul-30 08:39 270 6 gusting 7 25.0
2014-Jul-30 08:29 225 6 gusting 11 25.6
2014-Jul-30 08:19 312 10 gusting 11 25.0
2014-Jul-30 08:09 314 4 gusting 10 25.6
2014-Jul-30 07:59 248 3 gusting 6 25.6
2014-Jul-30 07:49 253 6 gusting 6 25.6
2014-Jul-30 07:39 315 7 gusting 8 26.1
2014-Jul-30 07:29 292 4 gusting 7 26.1
2014-Jul-30 07:19 252 2 gusting 10 26.7
2014-Jul-30 07:09 313 3 gusting 6 26.7
2014-Jul-30 06:59 292 4 gusting 7 26.7
2014-Jul-30 06:49 287 4 gusting 6 26.1
2014-Jul-30 06:39 314 4 gusting 7 26.1
2014-Jul-30 06:29 292 4 gusting 6 26.7
2014-Jul-30 06:19 296 4 gusting 6 26.7
2014-Jul-30 06:09 251 4 gusting 5 26.7
2014-Jul-30 05:59 292 2 gusting 2 26.7
2014-Jul-30 05:49 243 1 gusting 2 26.7
2014-Jul-30 05:39 259 1 gusting 2 26.1
2014-Jul-30 05:29 225 1 gusting 2 26.1
2014-Jul-30 05:19 225 0 gusting 4 26.1
2014-Jul-30 05:09 245 2 gusting 5 26.1
2014-Jul-30 04:59 202 2 gusting 4 25.6
2014-Jul-30 04:49 202 1 gusting 2 26.1
2014-Jul-30 04:39 241 1 gusting 2 26.1
2014-Jul-30 04:29 225 2 gusting 5 26.1
2014-Jul-30 04:19 225 4 gusting 6 25.6
2014-Jul-30 04:09 265 25.0
2014-Jul-30 03:59 180 0 gusting 1 25.6
2014-Jul-30 03:49 068 1 gusting 4 26.1
2014-Jul-30 03:39 112 26.1
2014-Jul-30 03:29 202 1 gusting 2 26.1
2014-Jul-30 03:19 225 25.6
2014-Jul-30 03:09 252 2 gusting 2 25.0
2014-Jul-30 02:59 090 4 gusting 5 25.6
2014-Jul-30 02:49 022 25.6
2014-Jul-30 02:39 082 25.6
2014-Jul-30 02:29 202 0 gusting 12 26.7
2014-Jul-30 02:19 225 10 gusting 12 29.4
2014-Jul-30 02:09 208 6 gusting 11 30.0
2014-Jul-30 01:59 202 11 gusting 12 29.4
2014-Jul-30 01:49 202 9 gusting 13 28.3
2014-Jul-30 01:39 225 13 gusting 15 28.9
2014-Jul-30 01:29 202 10 gusting 13 28.3
2014-Jul-30 01:19 248 7 gusting 13 28.3
2014-Jul-30 01:09 225 2 gusting 10 27.2
2014-Jul-30 00:59 248 4 gusting 6 25.6
2014-Jul-30 00:49 225 6 gusting 6 26.1
2014-Jul-30 00:39 260 2 gusting 4 26.1
2014-Jul-30 00:29 248 5 gusting 8 27.2
2014-Jul-30 00:19 270 3 gusting 14 28.3
2014-Jul-30 00:09 237 13 gusting 14 28.3
2014-Jul-29 23:59 315 6 gusting 11 28.9
2014-Jul-29 23:49 225 12 gusting 19 29.4
2014-Jul-29 23:39 248 9 gusting 18 30.0
2014-Jul-29 23:29 202 17 gusting 19 30.6
2014-Jul-29 23:19 315 12 gusting 13 29.4
2014-Jul-29 23:09 192 3 gusting 12 29.4
2014-Jul-29 22:59 248 6 gusting 8 29.4
2014-Jul-29 22:49 068 1 gusting 8 28.9
2014-Jul-29 22:39 079 2 gusting 11 29.4
2014-Jul-29 22:29 045 6 gusting 7 29.4
2014-Jul-29 22:19 045 0 gusting 2 29.4
2014-Jul-29 22:09 032 0 gusting 5 29.4
2014-Jul-29 21:59 090 0 gusting 4 31.1
2014-Jul-29 21:49 31.7
2014-Jul-29 21:39 261 4 gusting 10 31.7
2014-Jul-29 21:29 202 8 gusting 18 31.7
2014-Jul-29 21:20 225 18 gusting 20 31.7
2014-Jul-29 21:10 248 7 gusting 10 31.1
2014-Jul-29 21:00 270 2 gusting 5 30.0
2014-Jul-29 20:50 202 2 gusting 7 30.6
2014-Jul-29 20:40 203 7 gusting 7 29.4
2014-Jul-29 20:30 202 6 gusting 6 28.3
2014-Jul-29 20:20 211 3 gusting 4 27.8
2014-Jul-29 20:10 112 28.3
2014-Jul-29 20:00 202 1 gusting 1 28.9
2014-Jul-29 19:50 196 28.9
2014-Jul-29 19:40 202 2 gusting 2 28.3
2014-Jul-29 19:30 202 1 gusting 2 27.8
2014-Jul-29 19:20 184 26.7
2014-Jul-29 19:10 090 26.7
2014-Jul-29 19:00 090 26.7
2014-Jul-29 18:50 090 1 gusting 1 26.7
2014-Jul-29 18:40 202 26.1
2014-Jul-29 18:30 068 26.1
2014-Jul-29 18:20 082 1 gusting 1 26.1
2014-Jul-29 18:10 090 1 gusting 1 26.1
2014-Jul-29 18:00 090 0 gusting 0 26.7
2014-Jul-29 17:50 201 27.2
2014-Jul-29 17:40 093 27.8
2014-Jul-29 17:30 202 27.8
2014-Jul-29 17:20 112 27.2
2014-Jul-29 17:10 177 26.7
2014-Jul-29 17:00 112 2 gusting 2 26.7
2014-Jul-29 16:50 090 2 gusting 2 26.7
2014-Jul-29 16:40 068 2 gusting 4 26.7
2014-Jul-29 16:30 090 4 gusting 4 26.7
2014-Jul-29 16:20 045 1 gusting 4 26.7
2014-Jul-29 16:10 092 4 gusting 6 26.7
2014-Jul-29 16:00 090 6 gusting 7 26.7
2014-Jul-29 15:50 079 4 gusting 7 27.2
2014-Jul-29 15:40 046 4 gusting 6 27.2
2014-Jul-29 15:30 068 4 gusting 5 27.2
2014-Jul-29 15:20 112 4 gusting 6 27.2
2014-Jul-29 15:10 110 3 gusting 6 27.2
2014-Jul-29 15:00 112 5 gusting 7 27.2
2014-Jul-29 14:50 068 2 gusting 7 27.2
2014-Jul-29 14:40 090 5 gusting 6 27.2
2014-Jul-29 14:30 090 4 gusting 5 27.2
2014-Jul-29 14:20 090 4 gusting 6 27.2
2014-Jul-29 14:10 091 6 gusting 6 27.8
2014-Jul-29 14:00 158 2 gusting 6 27.8
2014-Jul-29 13:50 093 4 gusting 6 27.2
2014-Jul-29 13:40 070 4 gusting 6 27.8
2014-Jul-29 13:30 090 6 gusting 7 27.8
2014-Jul-29 13:20 095 7 gusting 7 27.8
2014-Jul-29 13:10 090 5 gusting 6 27.8
2014-Jul-29 13:00 135 6 gusting 10 27.8
2014-Jul-29 12:50 068 8 gusting 10 27.8
2014-Jul-29 12:40 068 5 gusting 7 27.8
2014-Jul-29 12:30 112 6 gusting 6 27.2
2014-Jul-29 12:20 085 6 gusting 10 27.8
2014-Jul-29 12:10 090 7 gusting 7 27.8
2014-Jul-29 12:00 090 7 gusting 8 27.2
2014-Jul-29 11:50 109 7 gusting 10 27.2
2014-Jul-29 11:40 103 6 gusting 8 27.2
2014-Jul-29 11:30 112 6 gusting 6 27.2
2014-Jul-29 11:20 090 6 gusting 6 27.2
2014-Jul-29 11:10 090 6 gusting 8 27.2
2014-Jul-29 11:00 045 6 gusting 8 27.2
2014-Jul-29 10:50 069 6 gusting 8 27.2
2014-Jul-29 10:40 090 5 gusting 7 26.7
2014-Jul-29 10:30 068 7 gusting 7 26.7
2014-Jul-29 10:20 090 6 gusting 7 26.7
2014-Jul-29 10:10 072 6 gusting 6 26.7
2014-Jul-29 10:00 090 4 gusting 5 26.7
2014-Jul-29 09:50 089 5 gusting 6 26.7
2014-Jul-29 09:40 090 5 gusting 5 26.7
2014-Jul-29 09:30 045 5 gusting 5 26.7
2014-Jul-29 09:20 110 5 gusting 7 26.7
2014-Jul-29 09:10 068 2 gusting 6 26.1
2014-Jul-29 09:00 068 4 gusting 6 26.1
2014-Jul-29 08:50 045 6 gusting 6 26.1
2014-Jul-29 08:40 068 6 gusting 6 26.1
2014-Jul-29 08:30 112 4 gusting 5 26.1
2014-Jul-29 08:20 045 5 gusting 6 26.1
2014-Jul-29 08:10 083 5 gusting 7 25.6
2014-Jul-29 08:00 090 4 gusting 7 25.6
2014-Jul-29 07:50 090 5 gusting 7 25.6
2014-Jul-29 07:40 103 7 gusting 7 25.6
2014-Jul-29 07:30 068 4 gusting 6 25.6
2014-Jul-29 07:20 068 4 gusting 5 25.6
2014-Jul-29 07:10 084 3 gusting 4 25.6
2014-Jul-29 07:00 068 2 gusting 2 25.6